Regional Weather Roundup
Issued by NWS

Home | Current Version | Previous Version | Graphics & Text | Print | Product List | Glossary On
Versions: 1 2 3 4 5 6 7 8 9 10 11 12 13 14 15 16 17 18 19 20 21 22 23 24 25 26 27 28 29 30 31 32 33 34 35 36 37 38 39 40 41 42 43 44 45 46 47 48 49 50
000
ASUS45 KCYS 271510
RWRWY

WYOMING REGIONAL WEATHER ROUNDUP
NATIONAL WEATHER SERVICE CHEYENNE WY
900 AM MDT SAT AUG 27 2016

NOTE:  "FAIR" INDICATES FEW OR NO CLOUDS BELOW 12,000 FEET
WITH NO SIGNIFICANT WEATHER AND/OR OBSTRUCTIONS TO VISIBILITY.

WYZ001-271600-
YELLOWSTONE NATIONAL PARK

CITY           SKY/WX    TMP DP  RH WIND       PRES   REMARKS
LK YELLOWSTONE   N/A     50  34  54 CALM      30.22S
W YELLOWSTONE  NOT AVBL

$$
WYZ002>013-054>058-071-098>099-271600-
NORTHERN WYOMING

CITY           SKY/WX    TMP DP  RH WIND       PRES   REMARKS
JACKSON        SUNNY     45  27  49 CALM      30.20R
CODY           FAIR      54  46  76 CALM      30.01F
GREYBULL       FAIR      56  40  55 SE3       29.99S
WORLAND        FAIR      53  43  68 CALM      30.00S
SHERIDAN       FAIR      59  47  64 CALM      29.96F
BUFFALO        FAIR      62  41  46 S5        30.01S
GILLETTE       FAIR      62  50  64 S18       29.99F
HULETT         FAIR      61  52  72 SW8       30.02S
NEWCASTLE      FAIR      59  50  72 S12G17    30.06S

$$
WYZ014>020-022>026-101>103-271600-
CENTRAL WYOMING

CITY           SKY/WX    TMP DP  RH WIND       PRES   REMARKS
BIG PINEY      FAIR      45  30  55 CALM      30.23S
PINEDALE       FAIR      45  34  65 NW5       30.24S
DUBOIS         FAIR      50  28  43 N6        30.16F
LANDER         FAIR      56  41  57 CALM      30.09S
RIVERTON       FAIR      57  41  55 SW6       30.10S
CASPER         FAIR      62  43  49 SW22G30   30.08F
DOUGLAS        FAIR      56  49  77 CALM      30.08F

$$
WYZ021-027>030-104>119-271600-
SOUTHERN WYOMING

CITY           SKY/WX    TMP DP  RH WIND       PRES   REMARKS
EVANSTON       FAIR      56  34  43 SW8       30.23R
FORT BRIDGER   FAIR      61  33  34 W5        30.25R
ROCK SPRINGS   FAIR      58  32  37 VRB3      30.22R
DIXON          FAIR      54  38  54 CALM      30.27S
RAWLINS        FAIR      61  36  39 SW15      30.21R
SARATOGA       FAIR      59  37  44 SE14      30.25S
LARAMIE        FAIR      59  37  44 SW16G25   30.22F
CHEYENNE       FAIR      62  40  44 S5        30.17S
TORRINGTON     CLOUDY    53  53 100 E3        30.07S FOG
PINE BLUFFS    FAIR      59  48  67 SW3       30.12F

$$



USA.gov is the U.S. government's official web portal to all federal, state and local government web resources and services.